Regional Weather Roundup
Issued by NWS Goodland, KS

Home | Current Version | Previous Version | Text Only | Print | Product List | Glossary Off
Versions: 1 2 3 4 5 6 7 8 9 10 11 12 13 14 15 16 17 18 19 20 21 22 23 24 25 26 27 28 29 30 31 32 33 34 35 36 37 38 39 40 41 42 43 44 45 46 47 48 49 50

000
ASUS43 KGLD 280259
RWRGLD

GOODLAND FORECAST AREA HOURLY WEATHER ROUNDUP
NATIONAL WEATHER SERVICE GOODLAND KS
800 PM MST MON FEB 27 2017

...OFFICIAL OBSERVATIONS...

CITY           SKY/WX    TMP DP  RH WIND       PRES   REMARKS
GOODLAND KS    CLOUDY    52  13  21 SW17      29.57R
HILL CITY KS   CLOUDY    43  17  35 CALM      29.60F
IMPERIAL NEB   CLOUDY    42  20  41 SE13      29.53S
MCCOOK NEB     CLOUDY    45  19  35 SE13      29.56F
AKRON CO       CLOUDY    33  21  61 NW26G32   29.62R WCI  20
BURLINGTON CO  CLOUDY    48  14  25 SW20      29.59S
LIMON CO       CLOUDY   N/A N/A N/A W10G22    29.64R
$$

...UNOFFICIAL OBSERVATIONS...

CITY           SKY/WX    TMP DP  RH WIND       PRES   REMARKS
LENORA KS        N/A     43  32  65 SE6         N/A
NORTON KS      CLEAR     45  10  24 E6        29.57F
SHARON SPRINGS   N/A     47  15  27 SW12G18     N/A
TRENTON NEB      N/A     40  32  73 SE7         N/A
KIT CARSON CO    N/A     48  17  29 MISG        N/A
YUMA CO        FAIR      43  19  39 NW24      29.58R
$$



USA.gov is the U.S. government's official web portal to all federal, state and local government web resources and services.